Content
SEND FEEDBACK

Daily
Averages
Monthly
Summary
Mexico

SAN LUIS POTOSÍ - CENTRO, SAN LUIS POTOSÍ


Home > North America > Mexico > San Luis Potosí
Elevation: 6138 feet     Latitude: 22 08N     Longitude: 100 58W

WEATHER
 
SELECT A DAY
Number of Records: 175,452;   Date Range: 1/1/95 - 7/23/14
 
SHARE

PRINT THIS DATA

[ ← Previous Day ]
WEATHER ALMANAC - MARCH 14, 2013
[ Next Day → ]
[ °C ]   °F
Weather ElementAverageHighLow
Temperature52.2 °F64.4 °F (1:50 pm)39.2 °F (5:49 am)
Dewpoint34.9 °F51 °F (5:50 pm)23 °F (3:44 pm)
Humidity54.5 %87 % (5:49 am)21 % (3:44 pm)
Barometer30.27 in30.44 in (9:51 am)29.88 in (8:50 pm)
Wind Speed6.7 mph19.6 mph (4:48 pm)
Wind Gust20.7 mph (11:47 am)
Weather ElementAverage
Visibility10.9 mi
Wind DirectionENE (73.3 °)

Weather ElementTotal
Precipitation---
Heating Degree Days13.2 (Base 65)
Growing Degree Days1.8 (Base 50)
Averaged from 31 records on March 14, 2013
WEATHER CONDITIONS BREAKOUT
WIND DIRECTION BREAKOUT
WEATHER BY HOUR - MARCH 14, 2013
[ °C ]   °F
Local TimeTemperatureDewpointHumidityBarometerVisibilityWind DirectionWind SpeedGust SpeedPrecipitationEventsConditions
1:46 AM44.6 °F33.8 °F66 %30.41 in10.0 miESE (110°)9.2 mphScattered Clouds
2:45 AM42.8 °F37.4 °F81 %30.15 in10.0 miSE (140°)6.9 mphScattered Clouds
2:50 AM43.0 °F36.0 °F70 %30.23 in5.0 miNorth2.2 mph
3:40 AM41.0 °F33.8 °F76 %30.38 in10.0 miCalmClear
4:44 AM41.0 °F33.8 °F76 %30.38 in10.0 miCalmClear
5:49 AM39.2 °F35.6 °F87 %30.19 in10.0 miCalmClear
5:50 AM40.0 °F36.0 °F78 %30.31 in5.0 miNorth2.2 mph
6:43 AM41.0 °F37.4 °F87 %30.40 in10.0 miCalmScattered Clouds
7:50 AM41.0 °F37.4 °F87 %30.42 in7.0 miCalmScattered Clouds
8:44 AM48.2 °F33.8 °F58 %30.24 in12.0 miCalmPartly Cloudy
8:45 AM48.0 °F41.0 °F69 %30.40 in7.0 miCalmHaze
9:51 AM53.6 °F32.0 °F44 %30.44 in15.0 miCalmPartly Cloudy
10:47 AM57.2 °F33.8 °F41 %30.43 in15.0 miESE (120°)8.1 mphPartly Cloudy
11:45 AM61.0 °F40.0 °F34 %30.34 in7.0 miENE (70°)2.2 mphHaze
11:47 AM60.8 °F33.8 °F36 %30.18 in15.0 miEast (100°)9.2 mph20.7 mphClear
12:55 PM62.6 °F26.6 °F26 %30.36 in15.0 miEast (100°)16.1 mphScattered Clouds
1:50 PM64.4 °F30.2 °F28 %30.34 in15.0 miEast (100°)11.5 mphMostly Cloudy
2:40 PM64.4 °F30.2 °F28 %30.08 in15.0 miEast (90°)13.8 mphMostly Cloudy
2:45 PM64.0 °F47.0 °F42 %30.17 in9.0 miEast (90°)4.5 mphHaze
3:44 PM64.4 °F23.0 °F21 %30.30 in15.0 miENE (60°)11.5 mphMostly Cloudy
4:48 PM62.6 °F26.6 °F26 %30.29 in15.0 miENE (60°)19.6 mphMostly Cloudy
5:40 PM60.8 °F28.4 °F29 %30.12 in15.0 miENE (60°)18.4 mphMostly Cloudy
5:50 PM62.0 °F51.0 °F58 %30.08 in11.0 miEast (90°)4.5 mphHaze
6:41 PM57.2 °F28.4 °F33 %30.32 in15.0 miEast (80°)18.4 mphMostly Cloudy
7:46 PM53.6 °F26.6 °F35 %30.35 in12.0 miESE (110°)6.9 mphMostly Cloudy
8:45 PM51.8 °F30.2 °F44 %30.16 in12.0 miESE (110°)9.2 mphMostly Cloudy
8:50 PM52.0 °F41.0 °F55 %29.88 in5.0 miEast (90°)4.5 mph
9:44 PM50.0 °F35.6 °F58 %30.39 in12.0 miSouth (190°)6.9 mphMostly Cloudy
10:42 PM50.0 °F39.2 °F66 %30.40 in10.0 miSouth (170°)11.5 mphMostly Cloudy
11:40 PM48.2 °F39.2 °F71 %30.13 in10.0 miSouth (170°)9.2 mphMostly Cloudy
11:50 PM47.0 °F42.0 °F79 %30.14 in5.0 miEast (90°)2.2 mph
Hourly data recorded from MMSP, located miles away from San Luis Potosí - Centro, San Luis Potosí







STORIES FROM OUR PARTNERS